Probability
0 0 0 0 0 0 0 0 0 0 0 0 0 0 0 0 0 0 0 0 0 0 0 0 0 0 0 0 0 0 0 0 0 0 0 0 0 0 0 0 0 0 0 0
0 0 0 0 0 0 0 0 0 0 0 0 0 0 0 0 0 0 0 0 0 0 0 0 0 0 0 0 0 0 0 0 0 0 0 0 0 0 0 0 0 0 0 0
0 0 0 0 0 0 0 0 0 0 0 0 0 0 0 0 0 0 0 0 0 0 0 0 0 0 0 0 0 0 0 0 0 0 0 0 0 0 0 0 0 0 0 0
0 0 0 0 0 0 0 0 0 0 0 0 0 0 0 0 0 0 0 0 0 0 0 0 0 0 0 0 0 0 0 0 0 0 0 0 0 0 0 0 0 0 0 0
0 0 0 0 0 0 0 0 0 0 0 0 0 0 0 0 0 0 0 0 0 0 0 0 0 0 0 0 0 0 0 0 0 0 0 0 0 0 0 0 0 0 0 0
0 0 0 0 0 0 0 0 0 0 0 0 0 0 0 0 0 0 0 0 0 0 0 0 0 0 0 0 0 0 0 0 0 0 0 0 0 0 0 0 0 0 0 0
0 0 0 0 0 0 0 0 0 0 0 0 0 0 0 0 0 0 0 0 0 0 0 0 0 0 0 0 0 0 0 0 0 0 0 0 0 0 0 0 0 0 0 0
0 0 0 0 0 0 0 0 0 0 0 0 0 0 0 0 0 0 0 0 0 0 0 0 0 0 0 0 0 0 0 0 0 0 0 0 0 0 0 0 0 0 0 0
0 0 0 0 0 0 0 0 0 0 0 0 0 0 0 0 0 0 0 0 0 0 0 0 0 0 0 0 0 0 0 0 0 0 0 0 0 0 0 0 0 0 0 0
0 0 0 0 0 0 0 0 0 0 0 0 0 0 0 0 0 0 0 0 0 0 0 0 0 0 0 0 0 0 0 0 0 0 0 0 0 0 0 0 0 0 0 0
0 0 0 0 0 0 0 0 0 0 0 0 0 0 0 0 0 0 0 0 0 0 0 0 0 0 0 0 0 0 0 0 0 0 0 0 0 0 0 0 0 0 0 0
0 0 0 0 0 0 0 0 0 0 0 0 0 0 0 0 0 0 0 0 0 0 0 0 0 0 0 0 0 0 0 0 0 0 0 0 0 0 0 0 0 0 0 0
0 0 0 0 0 0 0 0 0 0 0 0 0 0 0 0 0 0 0 0 0 0 0 0 0 0 0 0 0 0 0 0 0 0 0 0 0 0 0 0 0 0 0 0
0 0 0 0 0 0 0 0 0 0 0 0 0 0 0 0 0 0 0 0 0 0 0 0 0 0 0 0 0 0 0 0 0 0 0 0 0 0 0 0 0 0 0 0
0 0 0 0 0 0 0 0 0 0 0 0 0 0 0 0 0 0 0 0 0 0 0 0 0 0 0 0 0 0 0 0 0 0 0 0 0 0 0 0 0 0 0 0
0 0 0 0 0 0 0 0 0 0 0 0 0 0 0 0 0 0 0 0 0 0 0 0 0 0 0 0 0 0 0 0 0 0 0 0 0 0 0 0 0 0 0 0
0 0 0 0 0 0 0 0 0 0 0 0 0 0 0 0 0 0 0 0 0 0 0 0 0 0 0 0 0 0 0 0 0 0 0 0 0 0 0 0 0 0 0 0
0 0 0 0 0 0 0 0 0 0 0 0 0 0 0 0 0 0 0 0 0 0 0 0 0 0 0 0 0 0 0 0 0 0 0 0 0 0 0 0 0 0 0 0
0 0 0 0 0 0 0 0 0 0 0 0 0 0 0 0 0 0 0 0 0 0 0 0 0 0 0 0 0 0 0 0 0 0 0 0 0 0 0 0 0 0 0 0
0 0 0 0 0 0 0 0 0 0 0 0 0 0 0 0 0 0 0 0 0 0 0 0 0 0 0 0 0 0 0 0 0 0 0 0 0 0 0 0 0 0 0 0
0 0 0 0 0 0 0 0 0 0 0 0 0 0 0 0 0 0 0 0 0 0 0 0 0 0 0 0 0 0 0 0 0 0 0 0 0 0 0 0 0 0 0 0
0 0 0 0 0 0 0 0 0 0 0 0 0 0 0 0 0 0 0 0 0 0 0 0 0 0 0 0 0 0 0 0 0 0 0 0 0 0 0 0 0 0 0 0
0 0 0 0 0 0 0 0 0 0 0 0 0 0 0 0 0 0 0 0 0 0 0 0 0 0 0 0 0 0 0 0 0 0 0 0 0 0 0 0 0 0 0 0
0 0 0 0 0 0 0 0 0 0 0 0 0 0 0 0 0 0 0 0 0 0 0 0 0 0 0 0 0 0 0 0 0 0 0 0 0 0 0 0 0 0 0 0
0 0 0 0 0 0 0 0 0 0 0 0 0 0 0 0 0 0 0 0 0 0 0 0 0 0 0 0 0 0 0 0 0 0 0 0 0 0 0 0 0 0 0 0
0 0 0 0 0 0 0 0 0 0 0 0 0 0 0 0 0 0 0 0 0 0 0 0 0 0 0 0 0 0 0 0 0 0 0 0 0 0 0 0 0 0 0 0
Height
5886 5885 5882 5879 5877 5874 5871 5868 5865 5863 5860 5857 5854 5850 5846 5842 5837 5833 5827 5821 5815 5807 5798 5789 5779 5768 5756 5744 5730 5715 5700 5685 5669 5652 5634 5615 5597 5578 5560 5542 5524 5509 5495 5484
5886 5883 5881 5878 5875 5872 5870 5867 5864 5861 5857 5854 5851 5847 5843 5838 5833 5828 5822 5816 5809 5800 5790 5781 5770 5759 5746 5733 5719 5704 5688 5672 5654 5635 5616 5598 5579 5561 5544 5526 5509 5493 5480 5468
5884 5882 5879 5877 5874 5871 5868 5865 5862 5858 5855 5851 5848 5845 5839 5834 5829 5823 5817 5810 5802 5792 5783 5773 5761 5750 5737 5723 5708 5693 5677 5658 5639 5620 5601 5584 5567 5548 5531 5514 5497 5481 5466 5453
5883 5881 5878 5876 5873 5870 5867 5863 5859 5856 5852 5848 5845 5841 5835 5830 5824 5817 5811 5803 5795 5785 5775 5765 5754 5741 5728 5713 5698 5682 5664 5645 5625 5606 5587 5569 5552 5535 5517 5499 5483 5467 5451 5436
5882 5880 5877 5875 5872 5868 5865 5862 5858 5854 5849 5846 5841 5837 5832 5825 5818 5812 5805 5796 5788 5778 5768 5757 5746 5733 5719 5704 5688 5670 5652 5633 5613 5593 5575 5557 5539 5521 5503 5486 5470 5454 5438 5420
5881 5879 5876 5874 5870 5867 5864 5861 5857 5852 5848 5843 5837 5831 5826 5819 5813 5806 5799 5790 5781 5771 5761 5750 5738 5724 5710 5694 5677 5660 5641 5622 5602 5583 5565 5547 5529 5510 5492 5475 5459 5442 5424 5404
5881 5878 5876 5873 5869 5866 5862 5859 5854 5849 5845 5839 5833 5827 5822 5815 5807 5800 5792 5784 5775 5765 5755 5743 5730 5717 5701 5685 5668 5650 5632 5613 5594 5574 5556 5537 5518 5499 5481 5463 5446 5428 5408 5387
5880 5878 5875 5872 5869 5865 5860 5856 5851 5846 5841 5837 5830 5824 5819 5810 5802 5794 5787 5779 5769 5759 5748 5736 5723 5709 5693 5677 5660 5642 5624 5605 5586 5567 5548 5529 5510 5491 5472 5454 5435 5415 5393 5371
5879 5877 5874 5871 5868 5864 5859 5854 5849 5843 5838 5833 5826 5819 5812 5805 5797 5790 5782 5773 5764 5753 5742 5730 5716 5701 5686 5669 5652 5635 5616 5597 5578 5559 5541 5522 5504 5485 5467 5447 5427 5406 5384 5361
5878 5876 5874 5871 5867 5862 5858 5853 5847 5840 5833 5827 5823 5815 5809 5800 5793 5786 5777 5768 5758 5747 5736 5723 5709 5694 5678 5662 5645 5627 5608 5589 5570 5552 5534 5517 5499 5480 5461 5442 5422 5401 5379 5357
5877 5876 5873 5870 5865 5861 5857 5852 5845 5840 5832 5825 5818 5815 5806 5798 5789 5781 5772 5762 5752 5741 5729 5716 5702 5687 5671 5655 5638 5620 5601 5583 5565 5547 5530 5513 5495 5477 5458 5439 5419 5398 5376 5355
5877 5875 5871 5868 5864 5859 5855 5850 5844 5839 5832 5824 5817 5813 5802 5794 5785 5776 5767 5757 5746 5735 5723 5710 5695 5680 5665 5649 5632 5614 5596 5578 5560 5543 5526 5509 5492 5475 5457 5438 5418 5397 5376 5356
5876 5874 5871 5868 5865 5860 5854 5849 5843 5837 5831 5823 5815 5811 5799 5790 5781 5772 5762 5751 5741 5729 5717 5704 5689 5675 5659 5643 5626 5609 5591 5574 5557 5540 5524 5507 5491 5474 5456 5438 5418 5399 5379 5359
5874 5872 5870 5867 5862 5857 5853 5847 5841 5834 5828 5821 5814 5806 5797 5787 5777 5767 5757 5746 5735 5724 5711 5698 5684 5669 5654 5638 5622 5605 5587 5570 5554 5538 5522 5506 5490 5473 5456 5438 5419 5401 5382 5363
5872 5870 5867 5864 5860 5855 5851 5846 5839 5833 5826 5819 5812 5803 5794 5783 5773 5763 5752 5741 5730 5719 5707 5693 5679 5665 5649 5634 5617 5601 5584 5567 5552 5536 5520 5505 5489 5473 5456 5439 5422 5404 5386 5367
5869 5867 5864 5861 5858 5853 5849 5844 5838 5831 5824 5817 5808 5800 5791 5780 5770 5759 5748 5737 5726 5714 5702 5689 5675 5660 5645 5630 5614 5597 5581 5566 5550 5535 5519 5504 5489 5474 5458 5442 5425 5408 5390 5373
5866 5864 5862 5859 5855 5852 5848 5843 5836 5829 5821 5813 5805 5797 5787 5777 5766 5755 5744 5733 5722 5710 5698 5685 5671 5656 5641 5626 5611 5595 5580 5565 5549 5534 5519 5504 5490 5475 5459 5444 5428 5412 5396 5379
5863 5860 5858 5856 5853 5848 5846 5838 5833 5826 5819 5810 5802 5793 5784 5774 5763 5751 5740 5729 5717 5706 5694 5681 5667 5653 5638 5623 5608 5594 5579 5563 5548 5533 5519 5505 5491 5476 5461 5447 5432 5417 5401 5385
5858 5856 5854 5851 5848 5845 5841 5834 5828 5822 5816 5808 5799 5790 5780 5770 5759 5748 5737 5725 5713 5702 5690 5677 5664 5650 5635 5621 5606 5592 5577 5562 5548 5533 5519 5506 5493 5478 5464 5450 5436 5422 5407 5392
5852 5851 5849 5846 5841 5839 5837 5830 5822 5817 5810 5803 5794 5785 5776 5766 5756 5746 5734 5722 5710 5698 5686 5674 5661 5647 5633 5619 5605 5591 5577 5562 5548 5534 5521 5508 5494 5480 5466 5453 5439 5425 5411 5397
5847 5845 5844 5840 5836 5834 5830 5824 5818 5813 5807 5798 5789 5781 5772 5763 5754 5743 5731 5719 5707 5695 5683 5671 5658 5645 5631 5617 5603 5590 5576 5562 5548 5535 5522 5509 5496 5482 5469 5456 5443 5429 5416 5402
5840 5839 5837 5835 5832 5830 5824 5818 5813 5809 5802 5794 5786 5778 5769 5760 5750 5739 5728 5716 5704 5692 5680 5668 5655 5642 5629 5615 5602 5589 5576 5562 5548 5536 5523 5511 5498 5485 5472 5459 5447 5434 5422 5409
5832 5832 5830 5830 5829 5823 5818 5813 5808 5803 5797 5789 5782 5774 5765 5756 5746 5736 5725 5713 5701 5689 5677 5665 5653 5640 5627 5614 5601 5588 5575 5561 5548 5535 5523 5511 5500 5488 5476 5464 5452 5440 5429 5417
5824 5823 5822 5822 5822 5816 5811 5807 5802 5796 5791 5784 5777 5769 5761 5752 5743 5733 5722 5710 5698 5686 5674 5662 5650 5638 5625 5613 5600 5587 5574 5561 5548 5536 5524 5512 5501 5490 5479 5468 5457 5445 5434 5423
5816 5815 5814 5813 5813 5809 5806 5800 5795 5790 5785 5778 5772 5764 5756 5748 5739 5729 5718 5707 5695 5683 5671 5660 5648 5636 5624 5611 5599 5586 5573 5561 5549 5536 5525 5513 5502 5490 5480 5470 5460 5449 5438 5426
5808 5808 5806 5805 5803 5799 5798 5794 5789 5784 5778 5772 5766 5759 5751 5743 5734 5725 5715 5704 5692 5680 5669 5657 5645 5634 5622 5610 5598 5585 5573 5561 5549 5537 5526 5515 5504 5493 5482 5471 5460 5450 5441 5430
Wind_Speed
12 13 14 16 16 16 17 17 18 18 18 19 19 21 23 25 27 30 34 38 42 45 48 51 54 58 62 67 71 75 79 82 84 87 88 88 86 84 82 81 79 74 69 64
12 14 15 16 16 15 16 16 17 18 18 19 20 22 24 26 29 33 36 40 43 46 49 53 56 60 65 69 73 76 79 83 86 88 89 87 84 82 81 78 74 69 65 63
12 13 14 15 14 14 15 17 18 19 20 21 21 22 26 28 32 35 38 41 44 47 51 54 58 63 67 70 74 77 80 84 87 88 86 84 81 80 78 74 68 65 64 64
11 12 13 14 14 15 17 18 20 21 22 23 25 24 28 31 34 37 40 42 45 49 52 56 61 64 68 71 74 78 81 85 87 86 84 82 80 79 77 72 67 65 65 66
10 12 13 14 15 17 18 20 21 22 23 24 26 27 30 33 36 38 41 43 46 50 54 58 62 65 69 72 75 79 82 85 85 84 82 80 80 78 75 71 67 66 67 69
10 12 13 15 17 18 20 21 21 23 24 25 28 30 33 35 37 39 42 44 48 51 55 59 63 66 69 72 76 79 82 84 83 82 80 79 78 76 74 70 68 68 69 71
10 12 14 16 18 20 22 24 25 26 26 27 29 31 33 35 37 40 43 45 49 52 56 59 63 66 70 73 76 79 82 82 81 80 78 77 77 75 73 72 71 72 72 72
11 13 15 17 19 21 24 26 28 30 29 28 28 30 32 35 38 41 44 46 49 53 56 60 64 67 70 73 75 79 81 81 80 78 76 76 75 74 73 73 73 75 75 75
11 13 15 18 20 23 25 27 29 31 32 31 31 33 34 37 40 42 44 47 50 53 57 60 64 67 70 72 75 78 79 79 78 76 74 73 73 73 73 73 74 76 76 74
11 13 15 18 21 25 27 30 32 34 37 37 35 35 38 39 41 43 45 47 50 53 57 61 64 67 69 72 75 77 78 78 76 74 72 72 72 73 74 74 75 76 76 72
9 12 15 18 22 25 28 30 32 34 37 39 40 38 39 40 42 44 46 48 51 54 58 61 64 67 69 72 74 76 77 76 74 71 70 70 71 72 73 74 75 75 75 71
7 10 13 17 21 25 28 30 33 35 38 39 40 40 42 42 44 45 47 49 51 55 58 61 64 66 69 71 74 75 75 74 72 70 69 69 69 71 72 73 74 75 74 71
4 8 11 15 19 23 26 30 33 35 38 40 42 42 44 44 46 47 48 50 52 55 58 61 64 66 68 71 73 74 74 72 70 68 67 67 68 69 71 72 73 74 73 71
4 7 10 14 17 21 25 29 33 36 39 41 43 45 47 48 48 49 50 51 53 55 59 61 64 66 68 70 71 72 72 70 68 67 66 66 67 68 70 71 72 73 73 70
6 8 10 13 17 20 24 28 32 35 39 42 44 47 49 50 51 51 51 52 53 56 59 61 63 65 67 69 70 71 70 69 67 66 65 65 65 66 68 70 71 72 72 71
9 10 12 14 17 19 22 26 30 34 38 41 45 48 51 53 53 53 53 54 54 56 59 61 63 64 66 68 69 70 69 67 66 65 64 63 64 65 66 68 69 70 71 71
12 13 13 15 17 19 21 25 28 32 37 42 45 49 52 55 56 56 55 55 55 57 59 61 62 64 65 67 68 68 67 66 65 64 63 62 62 63 64 66 67 68 69 69
16 16 16 17 18 21 24 26 29 32 37 41 44 49 53 56 58 58 58 57 56 57 59 60 62 63 64 65 66 67 66 66 64 63 62 61 61 62 63 64 65 66 67 68
20 19 20 20 21 21 24 28 31 34 36 40 44 49 53 56 59 60 60 59 57 57 59 60 61 62 63 64 65 65 65 65 63 62 61 60 60 60 61 62 63 65 65 66
24 23 23 23 25 26 27 30 33 36 38 42 46 49 53 56 59 61 62 60 58 58 59 60 61 61 62 63 64 64 64 64 63 61 60 59 59 59 60 60 62 63 64 64
27 26 25 25 26 28 30 32 34 36 40 43 46 49 52 55 59 61 63 62 60 59 59 60 61 61 61 62 62 63 63 63 62 60 59 58 58 58 59 59 60 62 63 64
30 29 28 27 28 30 31 33 35 37 40 42 45 48 51 54 58 61 63 63 61 60 59 60 60 60 61 61 61 62 62 62 61 60 58 58 57 57 57 57 58 59 60 61
33 32 31 30 29 32 33 34 36 38 40 43 45 48 51 54 57 60 63 64 63 61 60 60 60 60 60 60 60 60 61 61 60 59 58 57 57 56 56 56 56 57 58 58
36 35 34 32 31 34 35 36 38 40 42 44 46 48 51 53 56 60 62 64 64 62 60 60 59 59 59 59 59 59 59 60 59 57 56 56 55 56 55 55 55 55 55 56
39 37 36 35 34 36 35 38 40 42 44 45 46 49 51 53 56 59 61 64 64 63 61 60 59 58 58 58 58 58 58 58 58 57 55 54 54 54 54 54 54 54 55 55
39 37 38 37 38 40 38 40 42 44 45 46 47 49 51 53 55 58 60 63 64 64 62 60 58 57 57 57 56 56 57 56 56 56 54 53 52 52 53 53 54 54 53 54
Wind_Direction
338 339 341 342 340 336 332 328 326 324 322 322 321 319 319 320 319 318 319 321 323 324 325 327 329 330 331 330 330 330 330 328 327 325 324 324 323 323 322 321 320 317 314 311
343 346 346 345 343 339 334 331 330 328 326 325 325 322 321 321 320 320 321 323 325 326 328 330 332 332 332 332 332 331 330 329 328 327 326 326 326 326 325 324 322 319 315 311
350 350 350 348 345 342 340 337 335 333 330 327 327 325 322 322 322 322 324 326 327 329 331 333 334 334 334 333 333 332 331 330 329 329 329 329 329 328 327 327 324 320 316 313
357 356 355 353 351 348 346 341 337 335 333 331 329 328 323 324 324 325 327 329 330 332 334 335 335 335 335 334 333 333 332 332 331 331 331 332 332 331 331 330 328 324 320 316
6 4 2 359 355 351 347 343 339 336 335 332 328 327 326 326 326 328 330 331 333 335 335 336 336 336 336 335 335 335 334 333 333 333 334 334 334 334 334 333 331 328 324 321
19 14 9 4 359 354 349 345 341 339 338 335 333 332 329 330 330 331 332 335 336 336 336 336 337 337 337 336 336 336 336 335 335 335 336 336 337 338 337 336 334 332 330 327
33 25 18 11 6 1 355 351 349 349 347 344 339 336 333 333 333 334 336 337 337 336 337 337 338 338 338 338 338 338 337 337 337 337 338 339 340 341 341 340 339 338 336 334
45 35 26 20 14 9 4 360 356 354 353 351 344 340 338 338 338 339 338 338 337 337 337 338 339 339 339 339 339 339 339 339 339 340 341 342 343 344 344 344 344 343 343 342
52 43 33 26 19 15 11 8 2 357 355 356 353 345 345 344 342 340 339 338 338 338 338 339 340 340 340 341 341 340 340 341 341 342 343 345 346 347 347 348 348 348 348 347
56 46 36 29 23 19 15 11 7 3 358 356 357 350 349 346 343 342 341 339 339 339 340 341 341 341 342 342 342 342 342 343 343 344 346 347 349 350 351 351 352 352 353 352
58 46 36 29 24 20 17 14 10 7 3 358 356 353 350 347 345 344 342 340 340 340 341 342 342 343 343 344 344 344 344 345 345 346 348 349 351 352 354 354 355 356 357 356
52 40 33 27 22 19 16 13 11 9 7 2 359 355 351 349 347 345 343 342 341 341 342 343 343 344 345 345 345 346 346 346 347 348 350 351 353 354 356 357 358 359 360 0
29 27 22 21 19 16 13 11 10 9 8 5 1 358 353 351 349 347 345 343 342 343 343 344 345 345 346 347 347 347 348 348 349 350 352 353 355 356 358 360 1 2 3 3
336 358 5 9 11 10 9 8 7 7 7 5 2 360 357 354 351 348 347 345 343 343 344 345 346 347 348 348 348 349 350 350 351 352 353 355 356 358 360 2 3 4 6 6
306 330 346 356 1 3 3 3 3 4 5 4 2 0 358 356 352 350 348 346 344 344 345 346 347 348 349 349 350 351 351 351 352 354 355 356 357 359 1 3 4 6 7 9
292 312 329 340 347 353 355 357 359 359 1 2 2 1 359 357 354 351 349 347 345 345 347 347 348 349 350 350 351 352 352 353 354 355 357 358 358 0 3 4 6 7 9 10
282 297 311 322 332 340 346 352 355 356 357 359 359 359 359 358 355 353 350 348 347 347 347 348 349 350 351 352 353 353 353 354 355 357 358 359 360 1 4 6 7 8 10 12
274 287 299 311 322 333 339 344 349 354 354 355 356 357 357 357 356 354 351 349 348 347 347 348 349 351 352 353 353 354 354 355 357 358 359 360 1 2 4 6 8 9 11 13
271 281 293 303 314 325 331 337 342 348 351 352 353 355 355 355 355 354 352 350 348 347 348 349 350 351 352 353 354 354 355 356 358 359 -0 1 2 4 6 7 9 10 12 13
269 277 288 299 309 320 326 331 337 341 346 349 351 352 353 353 354 353 352 350 348 347 348 349 350 351 353 354 354 355 356 357 359 360 1 1 3 5 7 8 9 11 12 14
266 273 283 293 303 312 319 326 332 338 342 345 347 349 350 351 352 352 352 350 348 348 348 349 350 351 353 354 355 356 357 358 359 0 1 2 4 5 7 9 10 11 13 14
266 271 278 287 298 306 314 320 326 331 336 340 343 345 347 348 349 350 351 350 349 347 347 348 350 351 353 354 355 356 357 358 359 0 2 3 4 6 7 9 10 12 13 14
264 270 276 284 294 300 307 313 318 325 331 335 339 342 344 345 347 348 349 350 349 347 347 348 349 350 352 354 355 356 357 358 359 0 1 2 4 6 8 9 10 11 13 14
262 267 274 281 289 294 301 307 313 320 326 331 335 338 341 342 344 346 347 348 348 347 347 347 348 349 351 353 355 356 357 358 359 360 1 2 3 5 7 8 9 10 12 13
261 266 273 278 284 287 294 301 307 314 321 326 330 334 337 339 341 343 345 346 347 347 346 346 347 348 350 352 354 355 356 357 359 359 0 1 2 3 5 6 8 9 10 12
261 267 272 276 281 285 291 297 303 310 316 321 326 330 334 336 338 340 342 344 345 346 346 345 346 347 349 351 353 355 356 357 358 359 360 1 2 3 4 4 5 7 9 10